Station Historical Data
Daily Summary for August 29, 2017 Units:  English    Metric   Both
« Previous Day
Next Day »
Daily Weekly Monthly Yearly Custom
  High: Low: Average:
Temperature: 74.5 °F 61.0 °F 66 °F
Dew Point: 58.3 °F 52.1 °F 54.4 °F
Humidity: 81% 49% 67%
Wind Speed: 7.0mph 0.0mph 1.3mph
Wind Gust: 10.0mph - -
Wind- - ESE
Pressure: 30.16 in 30.00 in -
Precipitation: 0.00 in    
Historical Graphs
 
 
Tabular Data for August 29, 2017
Time Temperature Dew Point Pressure Wind Wind Speed Wind Gust Humidity Rainfall Rate (Hourly)
00:04 63.0 °F 53.4 °F 30.16 in Calm   4.0 mph 71% 0.00 in
00:09 62.9 °F 53.4 °F 30.16 in ESE 2.0 mph 3.0 mph 71% 0.00 in
00:14 62.8 °F 53.3 °F 30.16 in East 3.0 mph 3.0 mph 71% 0.00 in
00:19 62.7 °F 53.2 °F 30.16 in Calm   3.0 mph 71% 0.00 in
00:24 62.6 °F 53.4 °F 30.16 in East 1.0 mph 3.0 mph 72% 0.00 in
00:29 62.4 °F 53.3 °F 30.16 in Calm   2.0 mph 72% 0.00 in
00:34 62.4 °F 53.3 °F 30.16 in Calm   3.0 mph 72% 0.00 in
00:39 62.3 °F 53.2 °F 30.16 in Calm   3.0 mph 72% 0.00 in
00:44 62.2 °F 53.4 °F 30.16 in Calm   4.0 mph 73% 0.00 in
00:49 62.1 °F 53.0 °F 30.16 in Calm   4.0 mph 72% 0.00 in
00:54 62.0 °F 53.2 °F 30.16 in Calm   2.0 mph 73% 0.00 in
00:59 62.0 °F 53.2 °F 30.16 in Calm   3.0 mph 73% 0.00 in
01:04 62.0 °F 53.2 °F 30.15 in East 1.0 mph 5.0 mph 73% 0.00 in
01:09 61.9 °F 53.1 °F 30.16 in Calm   2.0 mph 73% 0.00 in
01:14 61.8 °F 53.1 °F 30.16 in Calm   4.0 mph 73% 0.00 in
01:19 61.9 °F 53.1 °F 30.16 in SE 3.0 mph 3.0 mph 73% 0.00 in
01:24 61.8 °F 53.1 °F 30.15 in Calm   5.0 mph 73% 0.00 in
01:29 61.7 °F 53.0 °F 30.15 in Calm   5.0 mph 73% 0.00 in
01:34 61.7 °F 53.0 °F 30.15 in Calm   3.0 mph 73% 0.00 in
01:39 61.7 °F 53.0 °F 30.15 in ESE 1.0 mph 3.0 mph 73% 0.00 in
01:44 61.6 °F 53.2 °F 30.15 in Calm   3.0 mph 74% 0.00 in
01:49 61.5 °F 53.1 °F 30.15 in ESE 1.0 mph 4.0 mph 74% 0.00 in
01:54 61.6 °F 53.2 °F 30.15 in ESE 1.0 mph 4.0 mph 74% 0.00 in
01:59 61.6 °F 53.2 °F 30.15 in Calm     74% 0.00 in
02:04 61.5 °F 53.1 °F 30.15 in Calm     74% 0.00 in
02:09 61.5 °F 53.1 °F 30.15 in Calm     74% 0.00 in
02:14 61.5 °F 53.1 °F 30.15 in Calm     74% 0.00 in
02:19 61.5 °F 53.1 °F 30.15 in ESE 2.0 mph 3.0 mph 74% 0.00 in
02:24 61.4 °F 53.0 °F 30.15 in Calm   3.0 mph 74% 0.00 in
02:29 61.5 °F 53.1 °F 30.15 in Calm   3.0 mph 74% 0.00 in
02:34 61.5 °F 53.1 °F 30.15 in Calm   2.0 mph 74% 0.00 in
02:39 61.6 °F 53.2 °F 30.15 in ESE 1.0 mph 5.0 mph 74% 0.00 in
02:44 61.6 °F 53.2 °F 30.15 in ESE 1.0 mph 5.0 mph 74% 0.00 in
02:49 61.6 °F 53.2 °F 30.15 in ESE 1.0 mph 3.0 mph 74% 0.00 in
02:54 61.5 °F 53.1 °F 30.15 in Calm   3.0 mph 74% 0.00 in
02:59 61.4 °F 53.0 °F 30.15 in Calm   5.0 mph 74% 0.00 in
03:04 61.5 °F 53.1 °F 30.15 in Calm   4.0 mph 74% 0.00 in
03:09 61.4 °F 53.0 °F 30.15 in SE 1.0 mph 3.0 mph 74% 0.00 in
03:14 61.4 °F 53.0 °F 30.15 in SE 1.0 mph 3.0 mph 74% 0.00 in
03:19 61.4 °F 53.0 °F 30.15 in Calm   3.0 mph 74% 0.00 in
03:24 61.4 °F 53.0 °F 30.15 in Calm     74% 0.00 in
03:29 61.4 °F 53.0 °F 30.15 in Calm   2.0 mph 74% 0.00 in
03:34 61.4 °F 53.0 °F 30.15 in Calm   5.0 mph 74% 0.00 in
03:39 61.4 °F 53.0 °F 30.15 in Calm     74% 0.00 in
03:44 61.3 °F 52.9 °F 30.15 in Calm   2.0 mph 74% 0.00 in
03:49 61.3 °F 52.9 °F 30.15 in Calm   2.0 mph 74% 0.00 in
03:54 61.3 °F 52.9 °F 30.15 in Calm     74% 0.00 in
03:59 61.3 °F 52.9 °F 30.15 in Calm   3.0 mph 74% 0.00 in
04:04 61.3 °F 52.9 °F 30.15 in Calm   3.0 mph 74% 0.00 in
04:09 61.3 °F 52.9 °F 30.15 in Calm     74% 0.00 in
04:14 61.3 °F 52.9 °F 30.15 in Calm     74% 0.00 in
04:19 61.3 °F 52.9 °F 30.15 in Calm     74% 0.00 in
04:24 61.3 °F 52.9 °F 30.15 in Calm     74% 0.00 in
04:29 61.3 °F 52.9 °F 30.14 in Calm   3.0 mph 74% 0.00 in
04:34 61.2 °F 52.8 °F 30.15 in Calm   2.0 mph 74% 0.00 in
04:39 61.2 °F 52.8 °F 30.15 in Calm   4.0 mph 74% 0.00 in
04:44 61.3 °F 52.9 °F 30.15 in Calm   1.0 mph 74% 0.00 in
04:49 61.2 °F 52.8 °F 30.15 in Calm   1.0 mph 74% 0.00 in
04:54 61.2 °F 52.8 °F 30.15 in Calm   4.0 mph 74% 0.00 in
04:59 61.2 °F 52.8 °F 30.14 in Calm   4.0 mph 74% 0.00 in
05:04 61.2 °F 52.8 °F 30.14 in ESE 2.0 mph 2.0 mph 74% 0.00 in
05:09 61.2 °F 52.8 °F 30.14 in Calm   4.0 mph 74% 0.00 in
05:14 61.2 °F 52.8 °F 30.14 in Calm   3.0 mph 74% 0.00 in
05:19 61.2 °F 52.8 °F 30.14 in ESE 1.0 mph 3.0 mph 74% 0.00 in
05:24 61.2 °F 52.8 °F 30.14 in ESE 1.0 mph 4.0 mph 74% 0.00 in
05:29 61.1 °F 52.7 °F 30.14 in ESE 1.0 mph 4.0 mph 74% 0.00 in
05:34 61.1 °F 52.7 °F 30.14 in ESE 1.0 mph 3.0 mph 74% 0.00 in
05:39 61.0 °F 52.7 °F 30.14 in Calm   4.0 mph 74% 0.00 in
05:44 61.1 °F 52.7 °F 30.14 in Calm   5.0 mph 74% 0.00 in
05:49 61.1 °F 52.7 °F 30.14 in ESE 1.0 mph 5.0 mph 74% 0.00 in
05:54 61.1 °F 52.7 °F 30.14 in East 3.0 mph 5.0 mph 74% 0.00 in
05:59 61.1 °F 52.7 °F 30.14 in ESE 3.0 mph 6.0 mph 74% 0.00 in
06:04 61.1 °F 52.7 °F 30.14 in Calm   3.0 mph 74% 0.00 in
06:09 61.1 °F 52.7 °F 30.14 in East 1.0 mph 3.0 mph 74% 0.00 in
06:14 61.1 °F 52.7 °F 30.14 in ESE 1.0 mph 4.0 mph 74% 0.00 in
06:19 61.0 °F 52.7 °F 30.14 in ESE 1.0 mph 5.0 mph 74% 0.00 in
06:24 61.0 °F 52.7 °F 30.14 in ESE 1.0 mph 5.0 mph 74% 0.00 in
06:29 61.0 °F 53.0 °F 30.14 in Calm   4.0 mph 75% 0.00 in
06:34 61.1 °F 52.7 °F 30.15 in ESE 1.0 mph 5.0 mph 74% 0.00 in
06:39 61.2 °F 52.8 °F 30.15 in ESE 2.0 mph 6.0 mph 74% 0.00 in
06:44 61.3 °F 52.9 °F 30.15 in ESE 2.0 mph 6.0 mph 74% 0.00 in
06:49 61.3 °F 52.9 °F 30.14 in ESE 2.0 mph 5.0 mph 74% 0.00 in
06:54 61.3 °F 52.9 °F 30.14 in South 2.0 mph 8.0 mph 74% 0.00 in
06:59 61.3 °F 52.9 °F 30.15 in SSE 7.0 mph 7.0 mph 74% 0.00 in
07:04 61.4 °F 53.0 °F 30.15 in South 2.0 mph 7.0 mph 74% 0.00 in
07:09 61.4 °F 53.0 °F 30.15 in Calm   6.0 mph 74% 0.00 in
07:14 61.5 °F 53.1 °F 30.15 in SE 3.0 mph 5.0 mph 74% 0.00 in
07:19 61.5 °F 53.1 °F 30.15 in Calm   4.0 mph 74% 0.00 in
07:24 61.4 °F 53.0 °F 30.15 in SE 1.0 mph 5.0 mph 74% 0.00 in
07:29 61.5 °F 53.1 °F 30.15 in SE 1.0 mph 5.0 mph 74% 0.00 in
07:34 61.6 °F 53.2 °F 30.15 in SE 1.0 mph 4.0 mph 74% 0.00 in
07:39 61.7 °F 53.3 °F 30.15 in Calm   1.0 mph 74% 0.00 in
07:44 61.8 °F 53.4 °F 30.15 in Calm   3.0 mph 74% 0.00 in
07:49 61.8 °F 53.4 °F 30.15 in Calm   2.0 mph 74% 0.00 in
07:54 62.0 °F 53.2 °F 30.15 in Calm   3.0 mph 73% 0.00 in
07:59 62.1 °F 53.3 °F 30.15 in SSE 3.0 mph 5.0 mph 73% 0.00 in
08:04 62.3 °F 53.2 °F 30.15 in SE 3.0 mph 5.0 mph 72% 0.00 in
08:09 62.5 °F 53.3 °F 30.15 in SSE 3.0 mph 5.0 mph 72% 0.00 in
08:14 62.6 °F 53.1 °F 30.15 in SSE 2.0 mph 4.0 mph 71% 0.00 in
08:19 62.7 °F 52.8 °F 30.15 in Calm   3.0 mph 70% 0.00 in
08:24 62.7 °F 52.8 °F 30.15 in Calm   4.0 mph 70% 0.00 in
08:29 62.8 °F 52.9 °F 30.15 in SE 2.0 mph 4.0 mph 70% 0.00 in
08:34 62.9 °F 53.0 °F 30.15 in SE 1.0 mph 4.0 mph 70% 0.00 in
08:39 63.0 °F 52.7 °F 30.15 in East 1.0 mph 6.0 mph 69% 0.00 in
08:49 63.2 °F 52.9 °F 30.15 in SE 1.0 mph 3.0 mph 69% 0.00 in
08:54 63.3 °F 52.6 °F 30.14 in SE 1.0 mph 4.0 mph 68% 0.00 in
08:59 63.4 °F 52.7 °F 30.15 in Calm   3.0 mph 68% 0.00 in
09:04 63.6 °F 52.4 °F 30.15 in Calm   3.0 mph 67% 0.00 in
09:09 63.7 °F 52.5 °F 30.15 in SE 1.0 mph 5.0 mph 67% 0.00 in
09:14 63.9 °F 52.3 °F 30.15 in ESE 2.0 mph 3.0 mph 66% 0.00 in
09:19 64.0 °F 52.4 °F 30.14 in Calm   5.0 mph 66% 0.00 in
09:24 64.2 °F 52.6 °F 30.14 in SSE 2.0 mph 3.0 mph 66% 0.00 in
09:29 64.2 °F 52.2 °F 30.14 in ENE 3.0 mph 5.0 mph 65% 0.00 in
09:34 64.5 °F 52.5 °F 30.14 in SE 1.0 mph 5.0 mph 65% 0.00 in
09:39 64.9 °F 52.8 °F 30.15 in SE 1.0 mph 4.0 mph 65% 0.00 in
09:44 64.7 °F 52.2 °F 30.14 in SE 1.0 mph 4.0 mph 64% 0.00 in
09:49 64.9 °F 52.8 °F 30.14 in Calm   6.0 mph 65% 0.00 in
09:54 65.1 °F 52.6 °F 30.14 in Calm   5.0 mph 64% 0.00 in
09:59 65.4 °F 52.5 °F 30.14 in SE 2.0 mph 4.0 mph 63% 0.00 in
10:04 65.5 °F 53.0 °F 30.14 in SE 4.0 mph 6.0 mph 64% 0.00 in
10:09 65.6 °F 52.2 °F 30.14 in SSE 2.0 mph 6.0 mph 62% 0.00 in
10:14 65.8 °F 52.9 °F 30.14 in SSE 2.0 mph 5.0 mph 63% 0.00 in
10:19 65.9 °F 52.1 °F 30.14 in SE 2.0 mph 5.0 mph 61% 0.00 in
10:24 66.1 °F 52.7 °F 30.14 in SE 2.0 mph 6.0 mph 62% 0.00 in
10:29 66.0 °F 52.6 °F 30.14 in SE 4.0 mph 7.0 mph 62% 0.00 in
10:34 65.9 °F 52.9 °F 30.14 in SSE 3.0 mph 7.0 mph 63% 0.00 in
10:39 66.4 °F 53.4 °F 30.14 in SE 2.0 mph 7.0 mph 63% 0.00 in
10:44 66.5 °F 53.1 °F 30.14 in ESE 2.0 mph 6.0 mph 62% 0.00 in
10:49 66.7 °F 53.7 °F 30.14 in SSE 1.0 mph 5.0 mph 63% 0.00 in
10:54 66.5 °F 53.1 °F 30.14 in SSE 5.0 mph 6.0 mph 62% 0.00 in
10:59 66.4 °F 53.4 °F 30.14 in South 2.0 mph 7.0 mph 63% 0.00 in
11:04 66.5 °F 53.1 °F 30.14 in SE 2.0 mph 6.0 mph 62% 0.00 in
11:09 66.4 °F 53.4 °F 30.14 in SE 2.0 mph 6.0 mph 63% 0.00 in
11:14 66.4 °F 53.8 °F 30.14 in SSE 2.0 mph 6.0 mph 64% 0.00 in
11:19 66.5 °F 53.9 °F 30.14 in SSE 2.0 mph 6.0 mph 64% 0.00 in
11:24 66.5 °F 53.9 °F 30.13 in SE 2.0 mph 6.0 mph 64% 0.00 in
11:29 66.8 °F 54.2 °F 30.13 in ESE 2.0 mph 6.0 mph 64% 0.00 in
11:34 67.0 °F 54.0 °F 30.13 in SE 2.0 mph 5.0 mph 63% 0.00 in
11:39 67.0 °F 55.3 °F 30.13 in SE 2.0 mph 5.0 mph 66% 0.00 in
11:44 67.1 °F 54.5 °F 30.13 in South 5.0 mph 7.0 mph 64% 0.00 in
11:49 67.0 °F 54.4 °F 30.13 in ESE 2.0 mph 7.0 mph 64% 0.00 in
11:54 67.0 °F 54.4 °F 30.13 in SSE 3.0 mph 6.0 mph 64% 0.00 in
11:59 67.1 °F 54.9 °F 30.12 in Calm   7.0 mph 65% 0.00 in
12:04 67.2 °F 54.2 °F 30.12 in ESE 1.0 mph 5.0 mph 63% 0.00 in
12:09 67.2 °F 54.2 °F 30.12 in SE 2.0 mph 5.0 mph 63% 0.00 in
12:14 67.7 °F 55.1 °F 30.12 in SE 2.0 mph 5.0 mph 64% 0.00 in
12:19 68.1 °F 55.5 °F 30.12 in SE 2.0 mph 5.0 mph 64% 0.00 in
12:24 68.0 °F 54.9 °F 30.11 in SSE 2.0 mph 5.0 mph 63% 0.00 in
12:29 68.4 °F 55.3 °F 30.11 in SSE 2.0 mph 5.0 mph 63% 0.00 in
12:34 68.4 °F 55.7 °F 30.11 in East 3.0 mph 6.0 mph 64% 0.00 in
12:39 68.4 °F 55.7 °F 30.11 in Calm   6.0 mph 64% 0.00 in
12:44 68.6 °F 55.1 °F 30.11 in East 3.0 mph 6.0 mph 62% 0.00 in
12:49 68.8 °F 54.8 °F 30.11 in ENE 2.0 mph 5.0 mph 61% 0.00 in
12:54 68.8 °F 55.2 °F 30.10 in East 2.0 mph 6.0 mph 62% 0.00 in
12:59 68.8 °F 55.2 °F 30.10 in Calm   2.0 mph 62% 0.00 in
13:04 69.5 °F 56.3 °F 30.10 in East 3.0 mph 3.0 mph 63% 0.00 in
13:09 69.6 °F 56.0 °F 30.10 in ESE 1.0 mph 4.0 mph 62% 0.00 in
13:14 69.6 °F 55.1 °F 30.10 in Calm   3.0 mph 60% 0.00 in
13:19 69.5 °F 55.5 °F 30.10 in SE 1.0 mph 5.0 mph 61% 0.00 in
13:24 69.8 °F 56.2 °F 30.10 in ESE 2.0 mph 7.0 mph 62% 0.00 in
13:29 70.0 °F 55.9 °F 30.10 in NE 4.0 mph 5.0 mph 61% 0.00 in
13:34 70.4 °F 56.3 °F 30.10 in East 1.0 mph 5.0 mph 61% 0.00 in
13:39 70.6 °F 56.5 °F 30.09 in Calm   5.0 mph 61% 0.00 in
13:44 70.5 °F 55.9 °F 30.09 in NE 1.0 mph 5.0 mph 60% 0.00 in
13:54 71.3 °F 56.7 °F 30.09 in SSE 3.0 mph 8.0 mph 60% 0.00 in
13:59 71.5 °F 57.3 °F 30.09 in SE 2.0 mph 8.0 mph 61% 0.00 in
14:04 72.5 °F 57.4 °F 30.09 in SSE 1.0 mph 7.0 mph 59% 0.00 in
14:09 73.0 °F 57.3 °F 30.09 in East 1.0 mph 9.0 mph 58% 0.00 in
14:14 73.7 °F 57.5 °F 30.08 in SSE 6.0 mph 7.0 mph 57% 0.00 in
14:19 74.5 °F 58.3 °F 30.08 in East 4.0 mph 8.0 mph 57% 0.00 in
14:24 74.3 °F 57.1 °F 30.08 in East 4.0 mph 8.0 mph 55% 0.00 in
14:29 72.9 °F 56.8 °F 30.08 in East 2.0 mph 8.0 mph 57% 0.00 in
14:34 73.3 °F 57.6 °F 30.08 in East 2.0 mph 8.0 mph 58% 0.00 in
14:39 73.7 °F 57.5 °F 30.08 in East 3.0 mph 9.0 mph 57% 0.00 in
14:44 73.7 °F 57.0 °F 30.08 in East 1.0 mph 10.0 mph 56% 0.00 in
14:49 73.7 °F 57.5 °F 30.07 in ENE 4.0 mph 10.0 mph 57% 0.00 in
14:54 73.9 °F 56.7 °F 30.07 in East 4.0 mph 8.0 mph 55% 0.00 in
14:59 73.9 °F 57.7 °F 30.07 in East 4.0 mph 8.0 mph 57% 0.00 in
15:04 73.0 °F 56.9 °F 30.07 in ENE 4.0 mph 8.0 mph 57% 0.00 in
15:09 73.2 °F 54.0 °F 30.07 in ESE 2.0 mph 8.0 mph 51% 0.00 in
15:14 73.4 °F 54.2 °F 30.07 in SSE 3.0 mph 6.0 mph 51% 0.00 in
15:19 73.3 °F 54.6 °F 30.06 in SSE 4.0 mph 6.0 mph 52% 0.00 in
15:24 73.4 °F 54.2 °F 30.06 in SE 2.0 mph 7.0 mph 51% 0.00 in
15:29 73.5 °F 54.8 °F 30.06 in SSE 3.0 mph 9.0 mph 52% 0.00 in
15:34 73.2 °F 54.5 °F 30.06 in Calm   4.0 mph 52% 0.00 in
15:39 73.3 °F 53.0 °F 30.06 in Calm   5.0 mph 49% 0.00 in
15:44 72.8 °F 54.7 °F 30.06 in SE 4.0 mph 8.0 mph 53% 0.00 in
15:49 72.5 °F 54.9 °F 30.06 in SE 2.0 mph 7.0 mph 54% 0.00 in
15:54 72.6 °F 55.0 °F 30.06 in ESE 3.0 mph 7.0 mph 54% 0.00 in
15:59 72.8 °F 55.2 °F 30.06 in ESE 2.0 mph 6.0 mph 54% 0.00 in
16:04 72.6 °F 55.5 °F 30.06 in SE 3.0 mph 6.0 mph 55% 0.00 in
16:09 72.7 °F 56.1 °F 30.06 in ESE 3.0 mph 9.0 mph 56% 0.00 in
16:14 72.4 °F 55.8 °F 30.06 in East 1.0 mph 5.0 mph 56% 0.00 in
16:19 72.7 °F 56.1 °F 30.05 in SE 2.0 mph 5.0 mph 56% 0.00 in
16:24 72.7 °F 56.1 °F 30.05 in ESE 2.0 mph 9.0 mph 56% 0.00 in
16:29 72.4 °F 55.8 °F 30.05 in ENE 3.0 mph 9.0 mph 56% 0.00 in
16:34 72.4 °F 55.8 °F 30.05 in East 2.0 mph 7.0 mph 56% 0.00 in
16:39 72.4 °F 56.3 °F 30.05 in ENE 2.0 mph 5.0 mph 57% 0.00 in
16:44 72.5 °F 55.9 °F 30.05 in NE 1.0 mph 7.0 mph 56% 0.00 in
16:49 72.9 °F 55.8 °F 30.05 in SE 3.0 mph 6.0 mph 55% 0.00 in
16:54 72.7 °F 55.6 °F 30.05 in ESE 2.0 mph 6.0 mph 55% 0.00 in
16:59 72.7 °F 55.1 °F 30.05 in ESE 1.0 mph 5.0 mph 54% 0.00 in
17:04 72.4 °F 54.3 °F 30.05 in ESE 2.0 mph 5.0 mph 53% 0.00 in
17:09 72.4 °F 54.3 °F 30.05 in ESE 2.0 mph 5.0 mph 53% 0.00 in
17:14 72.3 °F 54.7 °F 30.05 in East 2.0 mph 7.0 mph 54% 0.00 in
17:19 72.1 °F 54.5 °F 30.05 in East 3.0 mph 7.0 mph 54% 0.00 in
17:24 72.0 °F 54.9 °F 30.05 in East 2.0 mph 7.0 mph 55% 0.00 in
17:29 71.8 °F 54.3 °F 30.05 in ESE 2.0 mph 7.0 mph 54% 0.00 in
17:34 71.8 °F 55.3 °F 30.05 in NE 3.0 mph 5.0 mph 56% 0.00 in
17:39 71.9 °F 55.3 °F 30.05 in NE 2.0 mph 6.0 mph 56% 0.00 in
17:44 71.9 °F 54.9 °F 30.05 in ENE 7.0 mph 8.0 mph 55% 0.00 in
17:49 72.1 °F 55.5 °F 30.04 in ESE 1.0 mph 7.0 mph 56% 0.00 in
17:54 72.3 °F 55.2 °F 30.05 in ENE 5.0 mph 10.0 mph 55% 0.00 in
17:59 72.6 °F 55.5 °F 30.04 in East 3.0 mph 10.0 mph 55% 0.00 in
18:04 72.7 °F 55.6 °F 30.04 in ENE 3.0 mph 7.0 mph 55% 0.00 in
18:09 72.5 °F 55.9 °F 30.04 in ENE 3.0 mph 7.0 mph 56% 0.00 in
18:14 72.3 °F 56.2 °F 30.04 in East 1.0 mph 8.0 mph 57% 0.00 in
18:19 72.4 °F 55.3 °F 30.04 in ESE 1.0 mph 5.0 mph 55% 0.00 in
18:24 72.3 °F 56.2 °F 30.04 in East 3.0 mph 8.0 mph 57% 0.00 in
18:29 71.9 °F 54.9 °F 30.04 in East 3.0 mph 8.0 mph 55% 0.00 in
18:34 71.7 °F 55.2 °F 30.04 in East 2.0 mph 7.0 mph 56% 0.00 in
18:39 71.4 °F 55.4 °F 30.04 in ENE 2.0 mph 7.0 mph 57% 0.00 in
18:44 71.1 °F 54.6 °F 30.03 in NE 3.0 mph 6.0 mph 56% 0.00 in
18:49 71.0 °F 55.0 °F 30.03 in Calm   5.0 mph 57% 0.00 in
18:54 71.0 °F 55.0 °F 30.03 in East 2.0 mph 2.0 mph 57% 0.00 in
18:59 70.8 °F 54.8 °F 30.03 in ENE 2.0 mph 5.0 mph 57% 0.00 in
19:04 70.6 °F 55.1 °F 30.03 in ENE 3.0 mph 5.0 mph 58% 0.00 in
19:09 70.5 °F 55.5 °F 30.03 in ENE 2.0 mph 5.0 mph 59% 0.00 in
19:14 70.3 °F 55.8 °F 30.03 in East 2.0 mph 5.0 mph 60% 0.00 in
19:19 70.2 °F 55.2 °F 30.03 in NE 1.0 mph 4.0 mph 59% 0.00 in
19:24 70.1 °F 55.1 °F 30.03 in NE 1.0 mph 3.0 mph 59% 0.00 in
19:29 69.9 °F 55.4 °F 30.03 in ENE 1.0 mph 5.0 mph 60% 0.00 in
19:34 69.7 °F 55.2 °F 30.03 in ENE 2.0 mph 6.0 mph 60% 0.00 in
19:39 69.5 °F 55.5 °F 30.03 in ENE 2.0 mph 6.0 mph 61% 0.00 in
19:44 69.3 °F 56.2 °F 30.02 in ENE 2.0 mph 6.0 mph 63% 0.00 in
19:49 69.1 °F 56.8 °F 30.02 in ENE 2.0 mph 6.0 mph 65% 0.00 in
19:54 68.7 °F 56.9 °F 30.02 in ENE 1.0 mph 5.0 mph 66% 0.00 in
19:59 68.5 °F 57.1 °F 30.02 in ENE 1.0 mph 6.0 mph 67% 0.00 in
20:04 68.3 °F 57.3 °F 30.02 in ENE 4.0 mph 4.0 mph 68% 0.00 in
20:09 68.2 °F 57.2 °F 30.02 in Calm   4.0 mph 68% 0.00 in
20:14 68.0 °F 57.0 °F 30.02 in Calm   2.0 mph 68% 0.00 in
20:19 68.0 °F 57.0 °F 30.02 in Calm   4.0 mph 68% 0.00 in
20:24 67.9 °F 56.9 °F 30.02 in NE 3.0 mph 5.0 mph 68% 0.00 in
20:29 67.8 °F 56.9 °F 30.02 in NE 1.0 mph 6.0 mph 68% 0.00 in
20:34 67.7 °F 56.8 °F 30.02 in NE 2.0 mph 6.0 mph 68% 0.00 in
20:39 67.6 °F 57.1 °F 30.02 in NE 1.0 mph 4.0 mph 69% 0.00 in
20:49 67.2 °F 56.7 °F 30.02 in NE 1.0 mph 3.0 mph 69% 0.00 in
20:54 67.2 °F 56.7 °F 30.02 in ENE 2.0 mph 6.0 mph 69% 0.00 in
20:59 67.2 °F 56.7 °F 30.02 in ENE 2.0 mph 4.0 mph 69% 0.00 in
21:04 67.1 °F 56.6 °F 30.02 in ENE 2.0 mph 5.0 mph 69% 0.00 in
21:09 67.1 °F 56.6 °F 30.02 in East 2.0 mph 6.0 mph 69% 0.00 in
21:14 66.9 °F 56.4 °F 30.02 in Calm   3.0 mph 69% 0.00 in
21:19 66.6 °F 56.5 °F 30.02 in East 2.0 mph 7.0 mph 70% 0.00 in
21:24 66.4 °F 56.3 °F 30.02 in ENE 1.0 mph 7.0 mph 70% 0.00 in
21:29 66.2 °F 56.5 °F 30.02 in East 1.0 mph 4.0 mph 71% 0.00 in
21:34 66.0 °F 56.7 °F 30.02 in ENE 2.0 mph 4.0 mph 72% 0.00 in
21:39 65.9 °F 56.6 °F 30.02 in ENE 1.0 mph 4.0 mph 72% 0.00 in
21:44 65.7 °F 56.8 °F 30.02 in Calm   4.0 mph 73% 0.00 in
21:54 65.5 °F 56.6 °F 30.02 in Calm     73% 0.00 in
21:59 65.3 °F 56.4 °F 30.02 in Calm   3.0 mph 73% 0.00 in
22:04 65.4 °F 56.9 °F 30.02 in Calm   3.0 mph 74% 0.00 in
22:09 65.4 °F 56.9 °F 30.02 in Calm     74% 0.00 in
22:14 65.3 °F 56.8 °F 30.02 in Calm     74% 0.00 in
22:19 65.2 °F 56.7 °F 30.01 in Calm     74% 0.00 in
22:24 65.0 °F 56.5 °F 30.01 in Calm     74% 0.00 in
22:29 64.8 °F 56.3 °F 30.01 in Calm     74% 0.00 in
22:34 64.5 °F 56.4 °F 30.01 in Calm     75% 0.00 in
22:39 64.3 °F 56.2 °F 30.01 in Calm     75% 0.00 in
22:44 64.1 °F 56.4 °F 30.01 in Calm     76% 0.00 in
22:49 63.9 °F 56.2 °F 30.01 in Calm     76% 0.00 in
22:54 63.7 °F 56.0 °F 30.01 in Calm     76% 0.00 in
22:59 63.6 °F 55.9 °F 30.01 in Calm     76% 0.00 in
23:04 63.4 °F 56.1 °F 30.01 in Calm     77% 0.00 in
23:09 63.2 °F 55.9 °F 30.01 in Calm     77% 0.00 in
23:14 63.0 °F 55.7 °F 30.00 in Calm     77% 0.00 in
23:19 62.8 °F 55.8 °F 30.01 in Calm     78% 0.00 in
23:24 62.6 °F 55.6 °F 30.01 in Calm     78% 0.00 in
23:29 62.5 °F 55.5 °F 30.00 in Calm     78% 0.00 in
23:34 62.1 °F 55.2 °F 30.00 in Calm     78% 0.00 in
23:39 61.6 °F 55.0 °F 30.00 in Calm     79% 0.00 in
23:44 61.3 °F 55.1 °F 30.01 in Calm     80% 0.00 in
23:49 61.3 °F 55.4 °F 30.01 in Calm     81% 0.00 in
23:54 61.1 °F 55.2 °F 30.01 in Calm     81% 0.00 in
23:59 61.0 °F 55.1 °F 30.01 in Calm     81% 0.00 in
Buffalo, New York, USA
Compliments of Weather Underground - 2.5 mb